This is the latest recevied weather packets stored in our database for station/object K6POO-1. If no packets are shown the sender has not sent any weather packets the latest 10 day(s).
| Time | Temp. | Humidity | Pressure | Rain* | Wind** | Luminosity | Snow |
|---|---|---|---|---|---|---|---|
| 1788116350 | 16.67° C | 79% | 1014.9 hPa | 0 mm | - | 966 W/m² | - |
| 1788116046 | 16.67° C | 78% | 1015 hPa | 0 mm | - | 969 W/m² | - |
| 1788115741 | 16.11° C | 79% | 1014.9 hPa | 0 mm | - | 951 W/m² | - |
| 1788115439 | 16.11° C | 80% | 1015.1 hPa | 0 mm | - | 926 W/m² | - |
| 1788115139 | 16.11° C | 79% | 1015 hPa | 0 mm | - | 942 W/m² | - |
| 1788114834 | 16.11° C | 80% | 1015.2 hPa | 0 mm | - | 1037 W/m² | - |
| 1788114530 | 15.56° C | 81% | 1014.9 hPa | 0 mm | - | 800 W/m² | - |
| 1788114226 | 15.56° C | 81% | 1015.2 hPa | 0 mm | - | 961 W/m² | - |
| 1788113922 | 15.56° C | 83% | 1015.1 hPa | 0 mm | - | 376 W/m² | - |
| 1788113617 | 15.56° C | 82% | 1014.9 hPa | 0 mm | - | 408 W/m² | - |
| 1788113311 | 15.56° C | 82% | 1015.3 hPa | 0 mm | - | 468 W/m² | - |
| 1788113011 | 15.56° C | 82% | 1015.2 hPa | 0 mm | - | 604 W/m² | - |
| 1788112710 | 15.56° C | 81% | 1015.2 hPa | 0 mm | - | 643 W/m² | - |
| 1788112405 | 15.56° C | 84% | 1015.2 hPa | 0 mm | - | 796 W/m² | - |
| 1788112100 | 15° C | 83% | 1015.4 hPa | 0 mm | - | 980 W/m² | - |
| 1788111795 | 15.56° C | 82% | 1015.4 hPa | 0 mm | - | 566 W/m² | - |
| 1788111496 | 15.56° C | 83% | 1015.2 hPa | 0 mm | - | 500 W/m² | - |
| 1788111191 | 15.56° C | 84% | 1015.2 hPa | 0 mm | - | 531 W/m² | - |
| 1788110887 | 15° C | 84% | 1015.3 hPa | 0 mm | - | 422 W/m² | - |
| 1788110583 | 15° C | 84% | 1015.2 hPa | 0 mm | - | 339 W/m² | - |
| 1788110279 | 15° C | 85% | 1015 hPa | 0 mm | - | 413 W/m² | - |
| 1788109974 | 15° C | 85% | 1015.1 hPa | 0 mm | - | 371 W/m² | - |
| 1788109668 | 15° C | 83% | 1015 hPa | 0 mm | - | 369 W/m² | - |
| 1788109368 | 15° C | 85% | 1014.9 hPa | 0 mm | - | 327 W/m² | - |
| 1788109067 | 15° C | 85% | 1014.8 hPa | 0 mm | - | 285 W/m² | - |
* Rain latest hour (hover to see other rain measurements)
** Current wind speed in m/s (hover to see current wind gust speed)